• In Hungary
  • List of Countries
  • For 7 days
  • Water Temperature
  • Satellite Maps
  • Weather Map
  • News
  • Weather Widgets
  • user-avatar
    Login

    Hourly Weather Makas

    Today, 20 May, Sunday

    Time Temperature Precipitation Wind Pressure Humidity
    00:00 +21°C° 0.2 mm 1 mps 676 mmHg 96%
    01:00 +21°C° 0.2 mm 1 mps 676 mmHg 96%
    02:00 +21°C° 0.3 mm 1 mps 676 mmHg 96%
    03:00 +21°C° 0.3 mm 1 mps 676 mmHg 95%
    04:00 +21°C° 0.3 mm 1 mps 676 mmHg 95%
    05:00 +21°C° 0.3 mm 1 mps 676 mmHg 95%
    06:00 +21°C° 0.3 mm 1 mps 677 mmHg 94%
    07:00 +21°C° 0.3 mm 1 mps 677 mmHg 93%
    08:00 +22°C° 0.3 mm 1 mps 677 mmHg 90%
    09:00 +23°C° 0.3 mm 1 mps 678 mmHg 86%
    10:00 +24°C° 0.3 mm 1 mps 678 mmHg 83%
    11:00 +25°C° 0.7 mm 1 mps 678 mmHg 82%
    12:00 +26°C° 0.7 mm 1 mps 677 mmHg 82%
    13:00 +26°C° 0.7 mm 1 mps 677 mmHg 81%
    14:00 +26°C° 0.9 mm 1 mps 676 mmHg 84%
    15:00 +26°C° 0.9 mm 1 mps 676 mmHg 86%
    16:00 +25°C° 0.9 mm 1 mps 675 mmHg 89%
    17:00 +24°C° 0.9 mm 1 mps 675 mmHg 91%
    18:00 +23°C° 0.9 mm 1 mps 675 mmHg 94%
    19:00 +22°C° 0.9 mm 1 mps 675 mmHg 96%
    20:00 +21°C° 0.3 mm 1 mps 676 mmHg 96%
    21:00 +21°C° 0.3 mm 1 mps 676 mmHg 96%
    22:00 +21°C° 0.3 mm 1 mps 676 mmHg 96%
    23:00 +21°C° 0.2 mm 1 mps 676 mmHg 96%

    Tomorrow, 21 May, Monday

    Time Temperature Precipitation Wind Pressure Humidity
    00:00 +21°C° 0.2 mm 1 mps 676 mmHg 95%
    01:00 +21°C° 0.2 mm 1 mps 676 mmHg 94%
    02:00 +21°C° 0.1 mm 1 mps 676 mmHg 94%
    03:00 +20°C° 0.1 mm 1 mps 676 mmHg 93%
    04:00 +20°C° 0.1 mm 1 mps 675 mmHg 92%
    05:00 +21°C° 0 mm 1 mps 676 mmHg 91%
    06:00 +21°C° 0 mm 1 mps 676 mmHg 90%
    07:00 +21°C° 0 mm 1 mps 676 mmHg 89%
    08:00 +22°C° 0.1 mm 1 mps 677 mmHg 84%
    09:00 +24°C° 0.1 mm 1 mps 677 mmHg 79%
    10:00 +25°C° 0.1 mm 1 mps 678 mmHg 74%
    11:00 +26°C° 0.2 mm 1 mps 677 mmHg 71%
    12:00 +27°C° 0.2 mm 2 mps 677 mmHg 68%
    13:00 +28°C° 0.2 mm 2 mps 677 mmHg 65%
    14:00 +28°C° 0.3 mm 2 mps 676 mmHg 69%
    15:00 +27°C° 0.3 mm 2 mps 675 mmHg 73%
    16:00 +27°C° 0.3 mm 1 mps 675 mmHg 77%
    17:00 +25°C° 0.5 mm 1 mps 674 mmHg 84%
    18:00 +24°C° 0.5 mm 1 mps 674 mmHg 91%
    19:00 +20°C° 0.5 mm 0 mps 674 mmHg 98%
    20:00 +20°C° 0.1 mm 0 mps 675 mmHg 98%
    21:00 +20°C° 0.1 mm 0 mps 675 mmHg 97%
    22:00 +21°C° 0.1 mm 1 mps 676 mmHg 97%
    23:00 +21°C° 0 mm 1 mps 676 mmHg 96%

    Day after tomorrow, 22 May, Tuesday

    Time Temperature Precipitation Wind Pressure Humidity
    00:00 +20°C° 0 mm 1 mps 676 mmHg 96%
    01:00 +20°C° 0 mm 1 mps 675 mmHg 95%
    02:00 +20°C° 0 mm 1 mps 675 mmHg 94%
    03:00 +20°C° 0 mm 1 mps 675 mmHg 93%
    04:00 +20°C° 0 mm 1 mps 675 mmHg 92%
    05:00 +20°C° 0 mm 1 mps 675 mmHg 90%
    06:00 +21°C° 0 mm 1 mps 676 mmHg 88%
    07:00 +21°C° 0 mm 1 mps 676 mmHg 86%
    08:00 +23°C° 0.1 mm 1 mps 677 mmHg 81%
    09:00 +24°C° 0.1 mm 1 mps 677 mmHg 76%
    10:00 +26°C° 0.1 mm 1 mps 678 mmHg 70%
    11:00 +27°C° 0.3 mm 1 mps 678 mmHg 68%
    12:00 +28°C° 0.3 mm 1 mps 677 mmHg 66%
    13:00 +29°C° 0.3 mm 2 mps 677 mmHg 64%
    14:00 +27°C° 0.6 mm 1 mps 676 mmHg 74%
    15:00 +26°C° 0.6 mm 1 mps 675 mmHg 83%
    16:00 +24°C° 0.6 mm 1 mps 674 mmHg 93%
    17:00 +24°C° 0.6 mm 1 mps 675 mmHg 94%
    18:00 +23°C° 0.6 mm 1 mps 675 mmHg 96%
    19:00 +22°C° 0.6 mm 1 mps 675 mmHg 97%
    20:00 +22°C° 0.3 mm 1 mps 676 mmHg 97%
    21:00 +22°C° 0.3 mm 1 mps 676 mmHg 97%
    22:00 +22°C° 0.3 mm 1 mps 677 mmHg 97%
    23:00 +22°C° 0.5 mm 1 mps 677 mmHg 97%

    23 May, Wednesday

    Time Temperature Precipitation Wind Pressure Humidity
    00:00 +22°C° 0.5 mm 1 mps 677 mmHg 97%
    01:00 +22°C° 0.5 mm 1 mps 677 mmHg 97%
    02:00 +21°C° 0.8 mm 1 mps 676 mmHg 97%
    03:00 +19°C° 0.8 mm 0 mps 676 mmHg 97%
    04:00 +19°C° 0.8 mm 0 mps 676 mmHg 97%
    05:00 +21°C° 1.3 mm 1 mps 676 mmHg 97%
    06:00 +21°C° 1.3 mm 1 mps 676 mmHg 97%
    07:00 +21°C° 1.3 mm 1 mps 677 mmHg 97%
    08:00 +22°C° 1.2 mm 1 mps 677 mmHg 96%
    09:00 +22°C° 1.2 mm 1 mps 678 mmHg 95%
    10:00 +23°C° 1.2 mm 1 mps 678 mmHg 94%
    11:00 +23°C° 1.4 mm 1 mps 678 mmHg 94%
    12:00 +23°C° 1.4 mm 1 mps 678 mmHg 95%
    13:00 +23°C° 1.4 mm 1 mps 677 mmHg 96%
    14:00 +23°C° 2 mm 1 mps 677 mmHg 97%
    15:00 +22°C° 2 mm 1 mps 676 mmHg 97%
    16:00 +22°C° 2 mm 1 mps 675 mmHg 98%
    17:00 +22°C° 1.7 mm 1 mps 676 mmHg 98%
    18:00 +22°C° 1.7 mm 1 mps 676 mmHg 98%
    19:00 +21°C° 1.7 mm 1 mps 677 mmHg 98%
    20:00 +21°C° 1.5 mm 1 mps 677 mmHg 98%
    21:00 +21°C° 1.5 mm 1 mps 678 mmHg 98%
    22:00 +21°C° 1.5 mm 1 mps 678 mmHg 98%
    23:00 +21°C° 1.6 mm 1 mps 678 mmHg 98%

    24 May, Thursday

    Time Temperature Precipitation Wind Pressure Humidity
    00:00 +21°C° 1.6 mm 1 mps 677 mmHg 98%
    01:00 +21°C° 1.6 mm 1 mps 677 mmHg 98%
    02:00 +21°C° 1.5 mm 1 mps 677 mmHg 98%
    03:00 +21°C° 1.5 mm 1 mps 677 mmHg 98%
    04:00 +21°C° 1.5 mm 1 mps 676 mmHg 98%
    05:00 +21°C° 2.1 mm 1 mps 677 mmHg 98%
    06:00 +21°C° 2.1 mm 1 mps 677 mmHg 98%
    07:00 +21°C° 2.1 mm 1 mps 678 mmHg 98%
    08:00 +21°C° 2.9 mm 1 mps 678 mmHg 98%
    09:00 +21°C° 2.9 mm 1 mps 678 mmHg 98%
    10:00 +21°C° 2.9 mm 1 mps 679 mmHg 98%
    11:00 +21°C° 4.5 mm 1 mps 678 mmHg 98%
    12:00 +21°C° 4.5 mm 1 mps 678 mmHg 98%
    13:00 +21°C° 4.5 mm 1 mps 677 mmHg 98%
    14:00 +21°C° 3.6 mm 1 mps 677 mmHg 98%
    15:00 +21°C° 3.6 mm 1 mps 677 mmHg 98%
    16:00 +21°C° 3.6 mm 1 mps 676 mmHg 98%
    17:00 +21°C° 1.2 mm 1 mps 676 mmHg 98%
    18:00 +21°C° 1.2 mm 1 mps 677 mmHg 98%
    19:00 +21°C° 1.2 mm 1 mps 677 mmHg 98%
    20:00 +21°C° 0.4 mm 1 mps 677 mmHg 97%
    21:00 +20°C° 0.4 mm 1 mps 678 mmHg 97%
    22:00 +20°C° 0.4 mm 1 mps 678 mmHg 97%
    23:00 +20°C° 0.3 mm 1 mps 678 mmHg 96%

    25 May, Friday

    Time Temperature Precipitation Wind Pressure Humidity
    00:00 +20°C° 0.3 mm 1 mps 677 mmHg 96%
    01:00 +20°C° 0.3 mm 1 mps 677 mmHg 95%
    02:00 +20°C° 0.1 mm 1 mps 676 mmHg 94%
    03:00 +20°C° 0.1 mm 1 mps 676 mmHg 94%
    04:00 +20°C° 0.1 mm 1 mps 676 mmHg 93%
    05:00 +21°C° 0.1 mm 1 mps 676 mmHg 93%
    06:00 +21°C° 0.1 mm 1 mps 677 mmHg 92%
    07:00 +21°C° 0.1 mm 1 mps 677 mmHg 92%
    08:00 +21°C° 0.3 mm 1 mps 678 mmHg 92%
    09:00 +21°C° 0.3 mm 1 mps 678 mmHg 92%
    10:00 +21°C° 0.3 mm 1 mps 678 mmHg 93%
    11:00 +22°C° 0.2 mm 1 mps 677 mmHg 91%
    12:00 +22°C° 0.2 mm 1 mps 677 mmHg 90%
    13:00 +23°C° 0.2 mm 1 mps 677 mmHg 89%
    14:00 +23°C° 0.1 mm 1 mps 676 mmHg 89%
    15:00 +23°C° 0.1 mm 1 mps 676 mmHg 89%
    16:00 +23°C° 0.1 mm 1 mps 675 mmHg 89%
    17:00 +22°C° 0.2 mm 1 mps 675 mmHg 91%
    18:00 +22°C° 0.2 mm 1 mps 676 mmHg 93%
    19:00 +19°C° 0.2 mm 0 mps 676 mmHg 95%
    20:00 +21°C° 0.1 mm 1 mps 676 mmHg 95%
    21:00 +21°C° 0.1 mm 1 mps 676 mmHg 94%
    22:00 +21°C° 0.1 mm 1 mps 677 mmHg 93%
    23:00 +21°C° 0.1 mm 1 mps 676 mmHg 93%
    Show more